Location: *
(1.3500°S, 147.5000°W)
Time: 18:31:14
(UTC+00:00)

CZ-2C R/B - Pass Details

Date: 07 April 2020
Orbit: 639 x 705 km, 98.4° (Epoch: 28 May)

Event Time Altitude Azimuth Distance (km) Brightness Sun altitude
Rises 04:48:20 0° 29° (NNE) 2,999 6.9 -14.1°
Reaches altitude 10° 04:50:45 10° 38° (NE) 2,078 6.0 -14.7°
Maximum altitude 04:54:49 33° 102° (ESE) 1,095 4.3 -15.7°
Drops below altitude 10° 04:58:50 10° 166° (SSE) 2,054 6.0 -16.7°
Sets 05:01:12 0° 176° (S) 2,959 6.9 -17.3°
